STARLINK-34542, 65890

Orbit data source: Space-Track

STARLINK-34542, 65890 is a payload satellite owned by SpaceX/Seattle (US) in LEO that was launched on Tue, 07 Oct 2025 UTC via an FALCON 9 launch vehicle from the Air Force Eastern Test Range (AFETR). Payload-class satellites include a variety of spacecraft equipped with specific instruments for various scientific and technological missions. These include communications satellites like Starlink; space stations such as the ISS; scientific satellites like the Hubble; Earth observation satellites from companies like Planet Labs, Umbra, and HawkEye 360; GPS; miniature CubeSats for education and research; and military/defense satellites.

Loading next visibility...
Identifier
65890, 2025-224J
Orbit
LEO
Country
Flag of USUS
Related business
Manufacturer
SpaceX/Seattle
Mission
Operational Commercial Communications
Bus & Motor
STARLINK V2MO, Unknown motor
Mass
575 kg wet, ~530 kg dry
Launch date (UTC)
2025-10-07 (8 months ago)
Launch vehicle
FALCON 9
Launch site
Air Force Eastern Test Range (AFETR)
Object type
Payload
Rocket body
Debris
Shape & HBR
Box + 2 Pan, 17.7 m
Radar Cross Section
36.964 m², Large (>1 m²)

Expand to show TLE details & history
Last TLE update: 13 hours ago

TLE from 13 hours ago
0 STARLINK-34542
1 65890U 25224J   26171.44703519  .00022662  00000-0  77452-3 0  9999
2 65890  53.1576 254.2897 0000880  73.0363 287.0734 15.30216573 40606
Epoch: 2026-06-20T10:43Z
TLE epoch observation values (Epoch: 2026-06-20T10:43:43.840Z)
Latitude
-0.00003°
Longitude
-175.30452°
Altitude
475.888 km
Speed
7.629 km/s
True Right ascension
16h 57m 09s
True Declination
0° 00' 00"
Sunlit
Object was in full shadow at epoch
Visualization orbit readout
Latitude
Unknown
Longitude
Unknown
Altitude
Unknown
Speed
Unknown
Apparent Right ascension
Unknown
Apparent Declination
Unknown
Sunlit
N/A
Visualization observer readout
Local Sidereal Time
10:18:28
Azimuth
Unknown
Elevation
Unknown
Doppler factor
Unknown
Orbital elements
Apogee altitude
476.026 km
Perigee altitude
474.819 km
Semi-major axis
6,853.559 km
Eccentricity
0.00009
Inclination
53.1576°
RAAN
254.2897°
Arg. of periapsis
73.0363°
True anomaly
287.06376°
Mean anomaly
287.0734°
Eccentric anomaly
287.06858°
Mean motion
3.82533 °/min
Orbital period
94.11 mins
BSTAR
0.00077452
Loading maneuver chart data...
Computing Atmospheric mass density...
Loading historical data...
Loading historical data...
Loading historical data...
Loading historical data...
Loading historical data...
Loading historical data...
Loading historical data...

Documentation

Showing up to 5 results
|